sat.trackr.live / text

‹ back to catalog

GAOFEN-12 03

NORAD 52912 · 2022-069A

PAYLOAD ACTIVE UNKNOWN

§ Identity

Operator
Country
PRC
Launch date
2022-06-27
Launch site
JSC
Launch vehicle
Mass (kg)
RCS (m²)

Purposes: earth_obs

External: N2YO · Heavens-Above · Gunter

§ Orbital elements

Epoch: 2026-05-25T03:12:47.981088Z

Period
97.30 min
Inclination
97.8304°
Eccentricity
0.0001013
Mean motion
14.79993294 rev/d
Perigee alt
628.6 km
Apogee alt
630.1 km
Semi-major
7,007.5 km
B*
1.7025e-4
RAAN
33.5822°
Arg perigee
111.7101°
Mean anomaly
248.4219°
Rev number
21,120

§ Raw data

GAOFEN-12 031 52912U 22069A   26145.13388867  .00001237  00000+0  17025-3 0  99902 52912  97.8304  33.5822 0001013 111.7101 248.4219 14.79993294211205

JSON: /api/v1/satellites/52912 · /tle

For live sub-satellite position, see the globe view (requires WebGL).

§ Visibility from observer

Set your observer location to see the next 7 days of passes ≥ 10°. The values pass through the URL so the page stays shareable.

No JS? Fill the form by hand. The geolocation button needs JavaScript.